TimeNZST,TemperatureF,Dew PointF,Humidity,Sea Level PressureIn,VisibilityMPH,Wind Direction,Wind SpeedMPH,Gust SpeedMPH,PrecipitationIn,Events,Conditions,WindDirDegrees,DateUTC
12:00 AM,39.2,35.6,87,29.50,6.2,West,10.4,21.9,N/A,,Mostly Cloudy,270,2013-05-27 12:00:00
1:00 AM,41.0,32.0,70,29.50,6.2,WSW,11.5,-,N/A,,Partly Cloudy,250,2013-05-27 13:00:00
2:00 AM,41.0,32.0,70,29.50,6.2,WSW,8.1,-,N/A,,Scattered Clouds,240,2013-05-27 14:00:00
3:00 AM,39.2,30.2,70,29.53,-9999.0,WSW,9.2,-,N/A,,Clear,240,2013-05-27 15:00:00
4:00 AM,39.2,30.2,70,29.53,-9999.0,West,6.9,-,N/A,,Clear,260,2013-05-27 16:00:00
5:00 AM,37.4,28.4,70,29.53,-9999.0,WSW,10.4,-,N/A,,Clear,240,2013-05-27 17:00:00
6:00 AM,35.6,26.6,70,29.53,-9999.0,WSW,9.2,-,N/A,,Clear,250,2013-05-27 18:00:00
7:00 AM,37.4,24.8,60,29.56,-9999.0,WSW,11.5,-,N/A,,Clear,240,2013-05-27 19:00:00
8:00 AM,35.6,23.0,60,29.59,-9999.0,WSW,9.2,-,N/A,,Clear,240,2013-05-27 20:00:00
9:00 AM,37.4,23.0,56,29.62,6.2,WSW,13.8,-,N/A,,Scattered Clouds,240,2013-05-27 21:00:00
10:00 AM,41.0,24.8,53,29.62,6.2,WSW,16.1,-,N/A,,Scattered Clouds,240,2013-05-27 22:00:00
11:00 AM,42.8,24.8,49,29.65,6.2,SW,19.6,-,N/A,,Scattered Clouds,230,2013-05-27 23:00:00
12:00 PM,44.6,26.6,49,29.65,6.2,SW,25.3,-,N/A,,Scattered Clouds,230,2013-05-28 00:00:00
1:00 PM,44.6,24.8,46,29.68,6.2,SW,27.6,-,N/A,,Scattered Clouds,230,2013-05-28 01:00:00
2:00 PM,44.6,24.8,46,29.68,6.2,SW,25.3,38.0,N/A,,Scattered Clouds,230,2013-05-28 02:00:00
3:00 PM,44.6,24.8,46,29.71,6.2,SW,28.8,43.7,N/A,,Mostly Cloudy,220,2013-05-28 03:00:00
4:00 PM,39.2,33.8,81,29.74,6.2,South,15.0,-,N/A,,Mostly Cloudy,180,2013-05-28 04:00:00
5:00 PM,41.0,28.4,61,29.77,6.2,SW,25.3,39.1,N/A,,Mostly Cloudy,230,2013-05-28 05:00:00
5:35 PM,41.0,26.6,57,29.80,6.2,SW,26.5,42.6,N/A,Rain,Rain Showers,220,2013-05-28 05:35:00
6:00 PM,37.4,32.0,81,29.83,6.2,SSW,27.6,41.4,N/A,Rain,Rain Showers,210,2013-05-28 06:00:00
7:00 PM,35.6,30.2,81,29.89,1.6,SSW,24.2,39.1,N/A,Rain,Heavy Rain Showers,210,2013-05-28 07:00:00
7:15 PM,33.8,32.0,93,29.86,6.2,WSW,19.6,-,N/A,Rain-Snow,Rain Showers,240,2013-05-28 07:15:00
8:00 PM,37.4,32.0,81,29.89,5.0,SW,23.0,34.5,N/A,Rain-Snow,Rain Showers,220,2013-05-28 08:00:00
9:00 PM,39.2,30.2,70,29.92,5.0,SW,16.1,-,N/A,,Unknown,230,2013-05-28 09:00:00
10:00 PM,39.2,30.2,70,29.95,6.2,SW,13.8,-,N/A,,Unknown,230,2013-05-28 10:00:00
11:00 PM,39.2,26.6,61,29.98,6.2,WSW,23.0,-,N/A,Rain,Light Rain Showers,240,2013-05-28 11:00:00